[[{"header":{"parameterUnit":"m.s-1","parameterCategory":1,"la1":30.2991,"la2":30.254,"lo1":-89.0895,"lo2":-89.0444,"dy":0.0017,"dx":0.0017,"nx":28,"ny":28,"refTime":"2023-11-10T03:00:00:Z","depth":0,"parameterNumber":2,"parameterNumberName":"U-component_of_WINDS"},"data":[0,0,0,0,0,0,0,0,0,0,0,0,0,0,0,0,0,0,0,0,0,0,0,0,0,0,0,0,0,0,0,0,0,0,0,0,0,0,0,0,0,0,0,0,0,0,0,0,0,0,0,0,0,0,0,0,0,0,-2.3995,-2.3995,0,-2.4072,-2.4073,-2.4074,-2.4018,-2.4015,-2.4013,-2.4011,-2.4095,-2.41,-2.4104,0,0,0,0,0,0,0,0,0,0,0,0,0,-2.3805,-2.3808,-2.3995,-2.3996,-2.3997,-2.4072,-2.4073,-2.4074,-2.4018,-2.4015,-2.4012,-2.4009,-2.4094,-2.4099,-2.4105,0,0,0,0,0,0,0,0,0,0,0,0,0,-2.3885,-2.381,-2.3994,-2.3978,-2.3977,-2.4072,-2.4073,-2.4074,-2.4019,-2.4015,-2.4012,-2.4008,-2.4092,-2.4099,-2.4105,-2.4222,0,0,-2.4126,-2.4129,0,0,0,0,0,0,0,0,-2.3881,-2.3892,-2.3979,-2.3979,-2.3978,-2.4031,-2.4037,-2.4124,-2.402,-2.4003,-2.4011,-2.4006,-2.4077,-2.4085,-2.4108,-2.4226,-2.423,-2.4127,-2.4131,-2.4134,-2.4136,0,0,0,0,0,0,0,-2.3875,-2.3889,-2.4025,-2.3981,-2.398,-2.3968,-2.3976,-2.4053,-2.4061,-2.4004,-2.4,-2.401,-2.4076,-2.4102,-2.411,-2.4231,-2.4127,-2.4133,-2.4137,-2.414,-2.4453,-2.4457,0,0,0,0,0,0,-2.387,-2.3884,-2.4023,-2.4028,-2.3919,-2.3975,-2.3983,-2.4018,-2.4059,-2.4062,-2.4013,-2.4007,-2.4092,-2.4102,-2.4112,-2.4255,-2.4134,-2.414,-2.4144,-2.4449,-2.4454,-2.4459,0,0,0,0,0,0,-2.3867,-2.3883,-2.402,-2.3955,-2.3971,-2.3982,-2.4022,-2.4022,-2.4047,-2.4066,-2.4068,-2.4037,-2.4089,-2.4103,-2.4196,-2.4257,-2.4143,-2.415,-2.4444,-2.4451,-2.4456,-2.4539,0,0,0,0,0,0,-2.3861,-2.3882,-2.3925,-2.3956,-2.3975,-2.41,-2.4026,-2.4026,-2.4058,-2.4051,-2.4089,-2.4092,-2.4087,-2.4186,-2.4203,-2.4264,-2.4155,-2.4439,-2.4447,-2.4454,-2.4531,-2.4548,-2.4562,0,0,0,0,0,-2.3855,-2.3946,-2.3928,-2.3945,-2.4029,-2.4104,-2.4115,-2.4106,-2.4063,-2.4108,-2.4121,-2.4091,-2.4247,-2.4196,-2.4214,-2.4279,-2.4435,-2.4445,-2.4454,-2.4524,-2.4544,-2.4561,0,0,0,0,0,0,-2.3923,-2.395,-2.393,-2.4033,-2.4067,-2.4094,-2.415,-2.4127,-2.4175,-2.4166,-2.4155,-2.4165,-2.4263,-2.428,-2.4222,-2.4396,-2.4334,-2.4348,-2.4382,-2.4401,-2.4416,-2.4411,-2.4161,0,0,0,0,0,-2.395,-2.4007,-2.4027,-2.4117,-2.4134,-2.414,-2.4172,-2.4162,-2.4197,-2.4212,-2.4231,-2.4268,-2.4325,-2.4364,-2.4417,-2.4532,-2.4542,-2.4586,-2.4602,-2.4614,-2.4627,-2.4693,-2.4714,-2.449,-2.449,-2.4489,0,0,-2.4006,-2.4028,-2.4065,-2.4131,-2.4156,-2.4218,-2.4152,-2.4219,-2.4266,-2.4222,-2.4312,-2.4328,-2.4368,-2.4473,-2.4521,-2.4491,-2.4691,-2.4626,-2.4636,-2.4642,-2.4705,-2.4726,-2.4745,-2.4496,-2.4495,-2.4494,0,0,-2.4142,-2.4162,-2.424,-2.4267,-2.4304,-2.4307,-2.4326,-2.4358,-2.4366,-2.4455,-2.4425,-2.4481,-2.458,-2.4611,-2.4639,-2.4788,-2.4764,-2.4806,-2.4887,-2.4951,-2.4969,-2.4985,-2.5041,-2.5061,-2.4818,-2.4818,-2.4818,0,-2.4208,-2.4297,-2.4284,-2.4354,-2.4386,-2.4348,-2.4429,-2.4455,-2.451,-2.4534,-2.4498,-2.4623,-2.4647,-2.4761,-2.4798,-2.4821,-2.4845,-2.4803,-2.4967,-2.4983,-2.4997,-2.5051,-2.5072,-2.4823,-2.4823,-2.4822,-2.4822,0,-2.4379,-2.4442,-2.4501,-2.4553,-2.4591,-2.4666,-2.4667,-2.4707,-2.4695,-2.4702,-2.4796,-2.4823,-2.4884,-2.4909,-2.4898,-2.5023,-2.5003,-2.4968,-2.4906,-2.5024,-2.5075,-2.5095,-2.4831,-2.4829,-2.4827,-2.4826,0,0,-2.456,-2.4604,-2.4627,-2.4652,-2.4691,-2.4741,-2.4815,-2.4873,-2.491,-2.4948,-2.5013,-2.5098,-2.5066,-2.5099,-2.5091,-2.5147,-2.5267,-2.5105,-2.5106,-2.5137,-2.5411,-2.544,-2.5464,-2.525,-2.5254,-2.5257,-2.5409,0,-2.47,-2.4828,-2.4819,-2.4941,-2.5001,-2.4967,-2.5032,-2.5066,-2.5075,-2.5129,-2.514,-2.5202,-2.5152,-2.5173,-2.5226,-2.5241,-2.5323,-2.523,-2.5314,-2.5317,-2.5308,-2.549,-2.552,-2.5662,-2.5428,-2.5432,-2.5434,0,-2.488,-2.4925,-2.5053,-2.5086,-2.5111,-2.517,-2.5223,-2.5274,-2.5312,-2.5315,-2.5352,-2.5335,-2.5414,-2.5348,-2.5459,-2.5396,-2.543,-2.5442,-2.5448,-2.5458,-2.5385,-2.5508,-2.5707,-2.573,-2.5464,-2.5462,-2.546,0,-2.5003,-2.5096,-2.5185,-2.5207,-2.5246,-2.529,-2.5308,-2.5342,-2.5378,-2.5426,-2.545,-2.5506,-2.5538,-2.5583,-2.5583,-2.5535,-2.5696,-2.563,-2.5704,-2.5705,-2.5742,-2.574,-2.5953,-2.5759,-2.5758,-2.5758,-2.5757,0,-2.5162,-2.5243,-2.5241,-2.5297,-2.5387,-2.5377,-2.5467,-2.5482,-2.5513,-2.5573,-2.5546,-2.5603,-2.5598,-2.5656,-2.5657,-2.5751,-2.5764,-2.5772,-2.5771,-2.5776,-2.5776,-2.58,-2.5792,-2.5764,-2.5762,-2.5761,-2.576,0,-2.5316,-2.5318,-2.5414,-2.5444,-2.5453,-2.5519,-2.5546,-2.56,-2.5607,-2.5683,-2.57,-2.5713,-2.578,-2.5784,-2.5862,-2.5863,-2.5978,-2.5965,-2.5965,-2.5964,-2.604,-2.6034,-2.6278,-2.6311,-2.6092,-2.6094,-2.6096,0,-2.5419,-2.548,-2.5517,-2.5554,-2.5576,-2.5636,-2.5673,-2.5665,-2.5705,-2.5754,-2.5803,-2.5868,-2.592,-2.6031,-2.6048,-2.6109,-2.61,-2.6181,-2.6109,-2.6112,-2.6105,-2.6103,-2.6111,-2.6196,-2.6198,-2.62,-2.6202,0,-2.5602,-2.56,-2.5653,-2.5708,-2.5752,-2.5795,-2.5835,-2.5868,-2.5865,-2.5912,-2.598,-2.602,-2.6101,-2.6167,-2.6226,-2.6249,-2.6227,-2.6224,-2.6245,-2.6252,-2.6251,-2.6256,-2.6007,-2.6219,-2.6217,-2.6216,-2.6215,-2.6215,-2.5736,-2.579,-2.5825,-2.5886,-2.5915,-2.5953,-2.6006,-2.602,-2.6076,-2.614,-2.6132,-2.621,-2.6249,-2.6326,-2.6353,-2.6416,-2.6388,-2.6418,-2.6426,-2.6435,-2.6444,-2.6238,-2.6426,-2.6425,-2.6425,-2.6425,-2.6424,0,-2.5921,-2.5942,-2.5998,-2.6054,-2.6103,-2.6075,-2.6118,-2.6162,-2.623,-2.6267,-2.6318,-2.6399,-2.6464,-2.6486,-2.655,-2.6596,-2.6588,-2.6613,-2.6612,-2.6618,-2.6463,-2.644,-2.6619,-2.6619,-2.6619,-2.6619,-2.6619,-2.6619,-2.6023,-2.6114,-2.6117,-2.6224,-2.6244,-2.6318,-2.6346,-2.6383,-2.6412,-2.6503,-2.6556,-2.657,-2.6603,-2.6669,-2.6728,-2.6733,-2.676,-2.6791,-2.6792,-2.6648,-2.6628,-2.661,-2.6588,-2.6795,-2.6796,-2.6942,-2.6944,-2.6945]},{"header":{"parameterUnit":"m.s-1","parameterCategory":1,"la1":30.2991,"la2":30.254,"lo1":-89.0895,"lo2":-89.0444,"dy":0.0017,"dx":0.0017,"nx":28,"ny":28,"refTime":"2023-11-10T03:00:00:Z","depth":0,"parameterNumber":3,"parameterNumberName":"V-component_of_WINDS"},"data":[0,0,0,0,0,0,0,0,0,0,0,0,0,0,0,0,0,0,0,0,0,0,0,0,0,0,0,0,0,0,0,0,0,0,0,0,0,0,0,0,0,0,0,0,0,0,0,0,0,0,0,0,0,0,0,0,0,0,-5.1668,-5.1666,0,-5.1544,-5.1543,-5.1541,-5.1399,-5.1396,-5.1394,-5.1392,-5.1261,-5.126,-5.1258,0,0,0,0,0,0,0,0,0,0,0,0,0,-5.1776,-5.1775,-5.1668,-5.1666,-5.1665,-5.1544,-5.1543,-5.1541,-5.1399,-5.1396,-5.1394,-5.1391,-5.1262,-5.126,-5.1258,0,0,0,0,0,0,0,0,0,0,0,0,0,-5.1698,-5.1774,-5.1668,-5.158,-5.157,-5.1545,-5.1543,-5.154,-5.14,-5.1396,-5.1393,-5.139,-5.1262,-5.126,-5.1258,-5.1308,0,0,-5.1251,-5.125,0,0,0,0,0,0,0,0,-5.1703,-5.1694,-5.1594,-5.1586,-5.1575,-5.1484,-5.1532,-5.1462,-5.14,-5.1464,-5.1392,-5.1389,-5.1338,-5.1329,-5.1313,-5.1302,-5.1296,-5.1251,-5.1249,-5.1249,-5.1248,0,0,0,0,0,0,0,-5.1708,-5.1699,-5.1619,-5.1593,-5.1581,-5.1544,-5.153,-5.1518,-5.142,-5.1458,-5.1448,-5.1435,-5.1332,-5.1315,-5.1308,-5.1294,-5.1251,-5.1249,-5.1248,-5.1247,-5.1315,-5.1318,0,0,0,0,0,0,-5.1728,-5.1704,-5.1623,-5.1615,-5.1633,-5.1545,-5.1529,-5.1516,-5.142,-5.1402,-5.1438,-5.1429,-5.1321,-5.1311,-5.1303,-5.1354,-5.1249,-5.1246,-5.1245,-5.1312,-5.1316,-5.1319,0,0,0,0,0,0,-5.1731,-5.1722,-5.1628,-5.1657,-5.1642,-5.1546,-5.1534,-5.1515,-5.1499,-5.1405,-5.1386,-5.144,-5.1318,-5.1306,-5.1308,-5.1347,-5.1245,-5.1243,-5.1308,-5.1313,-5.1318,-5.1457,0,0,0,0,0,0,-5.1734,-5.1724,-5.1743,-5.1658,-5.1641,-5.1636,-5.1536,-5.1515,-5.1496,-5.1483,-5.1401,-5.1384,-5.1314,-5.1312,-5.1305,-5.1342,-5.1242,-5.1304,-5.131,-5.1316,-5.1449,-5.1466,-5.1481,0,0,0,0,0,-5.1739,-5.1787,-5.1745,-5.1736,-5.1664,-5.1639,-5.1629,-5.1548,-5.15,-5.1517,-5.1456,-5.1387,-5.1344,-5.1313,-5.1305,-5.1342,-5.1301,-5.1309,-5.1316,-5.1441,-5.1463,-5.1481,0,0,0,0,0,0,-5.1878,-5.1774,-5.1727,-5.1749,-5.1704,-5.1615,-5.1635,-5.1574,-5.1541,-5.153,-5.143,-5.1412,-5.1425,-5.1383,-5.135,-5.1384,-5.1312,-5.1318,-5.1411,-5.143,-5.1446,-5.1456,-5.124,0,0,0,0,0,-5.1912,-5.1902,-5.1811,-5.184,-5.182,-5.1732,-5.1718,-5.166,-5.1608,-5.1588,-5.1527,-5.1479,-5.1454,-5.144,-5.1412,-5.1442,-5.142,-5.1462,-5.1479,-5.1493,-5.1499,-5.1509,-5.1526,-5.1343,-5.1343,-5.1343,0,0,-5.1981,-5.1923,-5.1923,-5.1866,-5.1825,-5.1815,-5.1717,-5.1711,-5.1702,-5.1587,-5.1584,-5.1538,-5.1477,-5.1492,-5.1496,-5.1458,-5.1545,-5.1502,-5.1514,-5.1512,-5.1518,-5.1536,-5.1551,-5.1348,-5.1347,-5.1346,0,0,-5.2102,-5.2058,-5.2076,-5.2036,-5.1974,-5.1915,-5.192,-5.1839,-5.1805,-5.1801,-5.1713,-5.17,-5.166,-5.1619,-5.1594,-5.1697,-5.1631,-5.1691,-5.1776,-5.1787,-5.1801,-5.1814,-5.1849,-5.1863,-5.1697,-5.1697,-5.1698,0,-5.2195,-5.2179,-5.2093,-5.2092,-5.2069,-5.1965,-5.1982,-5.1946,-5.1879,-5.1864,-5.1822,-5.1769,-5.172,-5.1724,-5.1749,-5.1732,-5.1732,-5.17,-5.1807,-5.1818,-5.1828,-5.1861,-5.1875,-5.1705,-5.1704,-5.1703,-5.1703,0,-5.2295,-5.2285,-5.2307,-5.2245,-5.2224,-5.2233,-5.2146,-5.2135,-5.2078,-5.2023,-5.2018,-5.1956,-5.1913,-5.191,-5.1854,-5.1904,-5.1882,-5.1826,-5.1752,-5.1855,-5.1884,-5.1895,-5.1716,-5.1713,-5.1711,-5.1709,0,0,-5.2502,-5.2391,-5.2401,-5.2371,-5.2294,-5.2283,-5.2286,-5.2245,-5.2236,-5.2192,-5.219,-5.2158,-5.2104,-5.2075,-5.2013,-5.2023,-5.2107,-5.1963,-5.196,-5.1991,-5.2156,-5.22,-5.2216,-5.2062,-5.2064,-5.2066,-5.2161,0,-5.2608,-5.2608,-5.253,-5.255,-5.2539,-5.2439,-5.244,-5.2392,-5.234,-5.232,-5.2261,-5.224,-5.2171,-5.2153,-5.2158,-5.2096,-5.2138,-5.2088,-5.2057,-5.2057,-5.2076,-5.2231,-5.2277,-5.237,-5.2172,-5.2174,-5.2175,0,-5.2733,-5.2697,-5.2717,-5.2638,-5.263,-5.2633,-5.2588,-5.2572,-5.2514,-5.2475,-5.2442,-5.2372,-5.2366,-5.2297,-5.2285,-5.2253,-5.2235,-5.2202,-5.2204,-5.2197,-5.2123,-5.2228,-5.2398,-5.2412,-5.2192,-5.2191,-5.2189,0,-5.288,-5.2837,-5.2842,-5.282,-5.2728,-5.2732,-5.2694,-5.2633,-5.2613,-5.2573,-5.2558,-5.2518,-5.2495,-5.2464,-5.2383,-5.2341,-5.2381,-5.2305,-5.2346,-5.2348,-5.2359,-5.236,-5.2528,-5.2349,-5.2349,-5.2349,-5.2349,0,-5.3007,-5.3023,-5.2907,-5.2911,-5.2925,-5.2834,-5.2849,-5.2801,-5.2747,-5.2738,-5.2648,-5.2641,-5.2535,-5.2515,-5.2451,-5.2451,-5.2441,-5.2408,-5.2391,-5.2416,-5.242,-5.2403,-5.2394,-5.2353,-5.2352,-5.2351,-5.235,0,-5.3174,-5.3098,-5.3097,-5.3011,-5.2989,-5.3003,-5.2927,-5.2926,-5.2867,-5.2856,-5.2848,-5.2757,-5.2728,-5.2645,-5.2594,-5.2551,-5.2568,-5.2537,-5.2589,-5.2578,-5.2623,-5.262,-5.2786,-5.2802,-5.2615,-5.2617,-5.2619,0,-5.326,-5.327,-5.3185,-5.3173,-5.3139,-5.3121,-5.3099,-5.3009,-5.299,-5.2924,-5.293,-5.2895,-5.2862,-5.282,-5.2747,-5.2707,-5.2673,-5.2734,-5.2667,-5.2691,-5.2673,-5.2673,-5.2673,-5.2749,-5.2752,-5.2754,-5.2755,0,-5.3421,-5.3382,-5.3356,-5.3317,-5.3295,-5.3259,-5.3218,-5.3212,-5.3111,-5.3094,-5.3064,-5.3039,-5.2987,-5.2952,-5.2901,-5.2858,-5.2789,-5.2777,-5.2784,-5.281,-5.2839,-5.2823,-5.2628,-5.2774,-5.2772,-5.277,-5.2769,-5.2769,-5.3549,-5.3553,-5.3493,-5.3467,-5.3426,-5.3389,-5.3383,-5.3324,-5.3299,-5.3252,-5.3199,-5.3175,-5.3113,-5.3037,-5.3,-5.2977,-5.2941,-5.2952,-5.2954,-5.2958,-5.297,-5.2843,-5.2968,-5.2967,-5.2966,-5.2966,-5.2965,0,-5.3704,-5.3661,-5.3637,-5.3583,-5.3562,-5.35,-5.3451,-5.3436,-5.3417,-5.3367,-5.3336,-5.3301,-5.3266,-5.319,-5.3147,-5.3144,-5.3111,-5.3135,-5.3135,-5.3125,-5.3005,-5.3003,-5.3163,-5.3163,-5.3163,-5.3163,-5.3163,-5.3163,-5.3783,-5.3785,-5.3739,-5.372,-5.3675,-5.3652,-5.3629,-5.3594,-5.3553,-5.3518,-5.349,-5.3441,-5.3379,-5.3331,-5.3295,-5.3273,-5.3261,-5.3296,-5.3264,-5.3153,-5.3134,-5.3116,-5.3114,-5.3294,-5.3294,-5.3385,-5.3386,-5.3387]}]]